map of TGZ home
Great Circle Mapper logo
TGZ - Airport
Location
City:  Tuxtla Gutiérrez, Chiapas, México
Near (Alt.):Chiapa de Corzo
Name:Ángel Albino Corzo International Airport
ICAO / IATA:MMTG / TGZ

Details
Type:Airport (Aerodrome, Airfield)
Use:Public/Civil, International (customs port of entry)
Latitude:16°34'17"N (16.571389)
Longitude:93°01'56"W (-93.032221)
Elevation:1499 ft (457 m)
Runways:1
Longest:8202 × 148 ft (2500 × 45 m), paved

Time
Time Zone:UTC-6 (DST-5)
Local Time:

Weather
METAR:MMTG 231843Z 06010KT 5SM SCT020 33/17 A2986 RMK 8/100 ISOL AC / FU HZ ARND
TAF:MMTG 231713Z 2318/2418 30010KT 5SM HZ SCT020
FM232100 30012KT P6SM SCT030CB BKN100
TEMPO 2322/2402 5SM TSRA BKN025CB
FM240300 00000KT 5SM HZ SCT015
TEMPO 2412/2416 2SM BR BKN010

Related Locations
Nearby:
Farthest:CCK: 11719 mi / 18861 km
West Island (Pulau Panjang) [Cocos (Keeling) Islands], CC

Find:

   beyond  
but within

Other Information
Maps:
NOTAMs:
Links:
Sources:

  
flag of México   

Sectional Chart

Flight Planning
at skyvector.com

Satellite Image

Google Maps Satellite View

 

Copyright © 2004-2014 Karl L. Swartz. All rights reserved.
The Great Circle Mapper name and logo are trademarks of the Great Circle Mapper.
All other trademarks mentioned herein belong to their respective owners.
Please see credits for attibutions and further copyright information.

  Follow gcmap on Facebook Follow gcmap on Twitter

hCard Microformat

Geo Microformat